M I D A S
Marine Information and Data Acquisition System
Tripno 1410 of the Zeeleeuw from 2007-11-08 08:43:16 to 2007-11-08 16:57:53
Back to CruiseResearch ActivitiesStationsMapUnderway DataData graphs

EquipmentUnitsComment
TimeDGPSUTC
LatitudeDGPSDM.mWGS84
LongitudeDGPSDM.mWGS84
TemperatureSBE03/SBE38deg celciusITS90
ConductivitySBE21S/mITS90
SalinitySBE21 Practical Salinity Units
ChlorophylAChelsea fluorimeterg/lCalibrated in Aceton
Missing or incorrect values are displayed as -999
Sea surface data collected by the RV Zeeleeuw from 2007-11-08 08:44:22 to 2007-11-08 17:07:23
                                                                                    Next 1000 lines
Time Latitude Longitude Temperature Conductivity Salinity ChlorophylA
2007-11-08 08:44:32 51°13.665 2°55.943 -999 -999 -999 -999
2007-11-08 08:44:37 51°13.666 2°55.939 -999 -999 -999 -999
2007-11-08 08:44:42 51°13.667 2°55.934 -999 -999 -999 -999
2007-11-08 08:44:47 51°13.668 2°55.929 -999 -999 -999 -999
2007-11-08 08:44:52 51°13.669 2°55.923 -999 -999 -999 -999
2007-11-08 08:44:57 51°13.67 2°55.917 -999 -999 -999 -999
2007-11-08 08:45:03 51°13.671 2°55.91 -999 -999 -999 -999
2007-11-08 08:45:08 51°13.672 2°55.905 -999 -999 -999 -999
2007-11-08 08:45:13 51°13.673 2°55.899 -999 -999 -999 -999
2007-11-08 08:45:17 51°13.674 2°55.894 -999 -999 -999 -999
2007-11-08 08:45:23 51°13.675 2°55.887 -999 -999 -999 -999
2007-11-08 08:45:27 51°13.676 2°55.883 -999 -999 -999 -999
2007-11-08 08:45:32 51°13.676 2°55.878 -999 -999 -999 -999
2007-11-08 08:45:37 51°13.677 2°55.872 -999 -999 -999 -999
2007-11-08 08:45:42 51°13.678 2°55.867 -999 -999 -999 -999
2007-11-08 08:45:47 51°13.678 2°55.861 -999 -999 -999 -999
2007-11-08 08:45:52 51°13.678 2°55.856 -999 -999 -999 -999
2007-11-08 08:45:57 51°13.679 2°55.851 -999 -999 -999 -999
2007-11-08 08:46:02 51°13.679 2°55.846 -999 -999 -999 -999
2007-11-08 08:46:07 51°13.679 2°55.841 -999 -999 -999 -999
2007-11-08 08:46:12 51°13.679 2°55.836 -999 -999 -999 -999
2007-11-08 08:46:17 51°13.679 2°55.831 -999 -999 -999 -999
2007-11-08 08:46:22 51°13.679 2°55.826 -999 -999 -999 -999
2007-11-08 08:46:27 51°13.679 2°55.821 -999 -999 -999 -999
2007-11-08 08:46:32 51°13.679 2°55.816 -999 -999 -999 -999
2007-11-08 08:46:38 51°13.678 2°55.81 -999 -999 -999 -999
2007-11-08 08:46:42 51°13.678 2°55.806 -999 -999 -999 -999
2007-11-08 08:46:48 51°13.677 2°55.801 -999 -999 -999 -999
2007-11-08 08:46:53 51°13.677 2°55.796 -999 -999 -999 -999
2007-11-08 08:46:58 51°13.677 2°55.792 -999 -999 -999 -999
2007-11-08 08:47:02 51°13.676 2°55.789 -999 -999 -999 -999
2007-11-08 08:47:07 51°13.676 2°55.785 -999 -999 -999 -999
2007-11-08 08:47:12 51°13.676 2°55.782 -999 -999 -999 -999
2007-11-08 08:47:18 51°13.676 2°55.779 -999 -999 -999 -999
2007-11-08 08:47:22 51°13.675 2°55.777 -999 -999 -999 -999
2007-11-08 08:47:27 51°13.675 2°55.775 -999 -999 -999 -999
2007-11-08 08:47:32 51°13.675 2°55.774 -999 -999 -999 -999
2007-11-08 08:47:37 51°13.675 2°55.773 -999 -999 -999 -999
2007-11-08 08:47:42 51°13.676 2°55.772 -999 -999 -999 -999
2007-11-08 08:47:47 51°13.676 2°55.772 -999 -999 -999 -999
2007-11-08 08:47:52 51°13.676 2°55.773 -999 -999 -999 -999
2007-11-08 08:47:57 51°13.677 2°55.773 -999 -999 -999 -999
2007-11-08 08:48:01 51°13.677 2°55.774 -999 -999 -999 -999
2007-11-08 08:48:06 51°13.678 2°55.775 -999 -999 -999 -999
2007-11-08 08:48:12 51°13.679 2°55.776 -999 -999 -999 -999
2007-11-08 08:48:17 51°13.679 2°55.777 -999 -999 -999 -999
2007-11-08 08:48:22 51°13.68 2°55.777 -999 -999 -999 -999
2007-11-08 08:48:27 51°13.679 2°55.777 -999 -999 -999 -999
2007-11-08 08:48:32 51°13.679 2°55.776 -999 -999 -999 -999
2007-11-08 08:48:37 51°13.678 2°55.775 -999 -999 -999 -999
2007-11-08 08:48:42 51°13.677 2°55.773 -999 -999 -999 -999
2007-11-08 08:48:47 51°13.676 2°55.772 -999 -999 -999 -999
2007-11-08 08:48:51 51°13.675 2°55.771 -999 -999 -999 -999
2007-11-08 08:48:57 51°13.675 2°55.77 -999 -999 -999 -999
2007-11-08 08:49:02 51°13.674 2°55.769 -999 -999 -999 -999
2007-11-08 08:49:07 51°13.674 2°55.769 -999 -999 -999 -999
2007-11-08 08:49:12 51°13.675 2°55.769 -999 -999 -999 -999
2007-11-08 08:49:17 51°13.675 2°55.769 -999 -999 -999 -999
2007-11-08 08:49:22 51°13.676 2°55.769 -999 -999 -999 -999
2007-11-08 08:49:27 51°13.677 2°55.769 -999 -999 -999 -999
2007-11-08 08:49:31 51°13.678 2°55.77 -999 -999 -999 -999
2007-11-08 08:49:37 51°13.68 2°55.77 -999 -999 -999 -999
2007-11-08 08:49:42 51°13.682 2°55.77 -999 -999 -999 -999
2007-11-08 08:49:47 51°13.684 2°55.77 -999 -999 -999 -999
2007-11-08 08:49:51 51°13.686 2°55.77 -999 -999 -999 -999
2007-11-08 08:49:57 51°13.689 2°55.769 -999 -999 -999 -999
2007-11-08 08:50:02 51°13.693 2°55.767 -999 -999 -999 -999
2007-11-08 08:50:07 51°13.698 2°55.764 -999 -999 -999 -999
2007-11-08 08:50:12 51°13.703 2°55.76 -999 -999 -999 -999
2007-11-08 08:50:17 51°13.709 2°55.754 -999 -999 -999 -999
2007-11-08 08:50:23 51°13.716 2°55.747 -999 -999 -999 -999
2007-11-08 08:50:28 51°13.722 2°55.741 -999 -999 -999 -999
2007-11-08 08:50:32 51°13.729 2°55.735 -999 -999 -999 -999
2007-11-08 08:50:37 51°13.737 2°55.728 -999 -999 -999 -999
2007-11-08 08:50:42 51°13.746 2°55.721 -999 -999 -999 -999
2007-11-08 08:50:47 51°13.754 2°55.714 -999 -999 -999 -999
2007-11-08 08:50:53 51°13.763 2°55.705 -999 -999 -999 -999
2007-11-08 08:50:58 51°13.772 2°55.697 -999 -999 -999 -999
2007-11-08 08:51:02 51°13.779 2°55.691 -999 -999 -999 -999
2007-11-08 08:51:07 51°13.789 2°55.682 -999 -999 -999 -999
2007-11-08 08:51:12 51°13.798 2°55.674 -999 -999 -999 -999
2007-11-08 08:51:17 51°13.807 2°55.666 -999 -999 -999 -999
2007-11-08 08:51:22 51°13.817 2°55.658 -999 -999 -999 -999
2007-11-08 08:51:27 51°13.826 2°55.65 -999 -999 -999 -999
2007-11-08 08:51:32 51°13.836 2°55.642 -999 -999 -999 -999
2007-11-08 08:51:37 51°13.846 2°55.634 -999 -999 -999 -999
2007-11-08 08:51:41 51°13.854 2°55.627 -999 -999 -999 -999
2007-11-08 08:51:47 51°13.866 2°55.618 -999 -999 -999 -999
2007-11-08 08:51:52 51°13.876 2°55.611 -999 -999 -999 -999
2007-11-08 08:51:57 51°13.886 2°55.604 -999 -999 -999 -999
2007-11-08 08:52:02 51°13.896 2°55.596 -999 -999 -999 -999
2007-11-08 08:52:07 51°13.907 2°55.589 -999 -999 -999 -999
2007-11-08 08:52:12 51°13.917 2°55.582 -999 -999 -999 -999
2007-11-08 08:52:17 51°13.928 2°55.574 -999 -999 -999 -999
2007-11-08 08:52:23 51°13.94 2°55.565 -999 -999 -999 -999
2007-11-08 08:52:27 51°13.948 2°55.56 -999 -999 -999 -999
2007-11-08 08:52:32 51°13.959 2°55.553 -999 -999 -999 -999
2007-11-08 08:52:37 51°13.969 2°55.546 -999 -999 -999 -999
2007-11-08 08:52:42 51°13.98 2°55.539 -999 -999 -999 -999
2007-11-08 08:52:47 51°13.991 2°55.532 -999 -999 -999 -999
2007-11-08 08:52:52 51°14.001 2°55.524 -999 -999 -999 -999
2007-11-08 08:52:57 51°14.011 2°55.517 -999 -999 -999 -999
2007-11-08 08:53:02 51°14.021 2°55.51 -999 -999 -999 -999
2007-11-08 08:53:07 51°14.031 2°55.502 -999 -999 -999 -999
2007-11-08 08:53:12 51°14.042 2°55.495 -999 -999 -999 -999
2007-11-08 08:53:17 51°14.052 2°55.488 -999 -999 -999 -999
2007-11-08 08:53:21 51°14.061 2°55.482 -999 -999 -999 -999
2007-11-08 08:53:27 51°14.074 2°55.474 -999 -999 -999 -999
2007-11-08 08:53:32 51°14.085 2°55.467 -999 -999 -999 -999
2007-11-08 08:53:37 51°14.096 2°55.458 -999 -999 -999 -999
2007-11-08 08:53:42 51°14.107 2°55.45 -999 -999 -999 -999
2007-11-08 08:53:47 51°14.118 2°55.44 -999 -999 -999 -999
2007-11-08 08:53:52 51°14.129 2°55.431 -999 -999 -999 -999
2007-11-08 08:53:57 51°14.14 2°55.42 -999 -999 -999 -999
2007-11-08 08:54:02 51°14.151 2°55.41 -999 -999 -999 -999
2007-11-08 08:54:07 51°14.163 2°55.399 -999 -999 -999 -999
2007-11-08 08:54:12 51°14.174 2°55.388 -999 -999 -999 -999
2007-11-08 08:54:17 51°14.186 2°55.375 -999 -999 -999 -999
2007-11-08 08:54:22 51°14.197 2°55.363 -999 -999 -999 -999
2007-11-08 08:54:27 51°14.208 2°55.35 -999 -999 -999 -999
2007-11-08 08:54:33 51°14.222 2°55.332 -999 -999 -999 -999
2007-11-08 08:54:37 51°14.23 2°55.321 -999 -999 -999 -999
2007-11-08 08:54:42 51°14.242 2°55.306 -999 -999 -999 -999
2007-11-08 08:54:47 51°14.253 2°55.29 -999 -999 -999 -999
2007-11-08 08:54:52 51°14.265 2°55.274 -999 -999 -999 -999
2007-11-08 08:54:57 51°14.276 2°55.256 -999 -999 -999 -999
2007-11-08 08:55:01 51°14.284 2°55.241 -999 -999 -999 -999
2007-11-08 08:55:06 51°14.295 2°55.222 -999 -999 -999 -999
2007-11-08 08:55:12 51°14.306 2°55.197 -999 -999 -999 -999
2007-11-08 08:55:16 51°14.314 2°55.18 -999 -999 -999 -999
2007-11-08 08:55:21 51°14.323 2°55.158 -999 -999 -999 -999
2007-11-08 08:55:26 51°14.331 2°55.136 -999 -999 -999 -999
2007-11-08 08:55:31 51°14.34 2°55.113 -999 -999 -999 -999
2007-11-08 08:55:36 51°14.348 2°55.09 -999 -999 -999 -999
2007-11-08 08:55:41 51°14.356 2°55.067 -999 -999 -999 -999
2007-11-08 08:55:45 51°14.363 2°55.048 -999 -999 -999 -999
2007-11-08 08:55:52 51°14.374 2°55.016 -999 -999 -999 -999
2007-11-08 08:55:57 51°14.382 2°54.992 -999 -999 -999 -999
2007-11-08 08:56:01 51°14.388 2°54.973 -999 -999 -999 -999
2007-11-08 08:56:06 51°14.395 2°54.949 -999 -999 -999 -999
2007-11-08 08:56:11 51°14.402 2°54.924 -999 -999 -999 -999
2007-11-08 08:56:16 51°14.409 2°54.9 -999 -999 -999 -999
2007-11-08 08:56:21 51°14.416 2°54.876 -999 -999 -999 -999
2007-11-08 08:56:26 51°14.422 2°54.851 -999 -999 -999 -999
2007-11-08 08:56:31 51°14.428 2°54.826 -999 -999 -999 -999
2007-11-08 08:56:36 51°14.435 2°54.801 -999 -999 -999 -999
2007-11-08 08:56:41 51°14.442 2°54.776 -999 -999 -999 -999
2007-11-08 08:56:46 51°14.448 2°54.752 -999 -999 -999 -999
2007-11-08 08:56:50 51°14.454 2°54.731 -999 -999 -999 -999
2007-11-08 08:56:55 51°14.46 2°54.706 -999 -999 -999 -999
2007-11-08 08:57:01 51°14.469 2°54.675 -999 -999 -999 -999
2007-11-08 08:57:05 51°14.474 2°54.655 -999 -999 -999 -999
2007-11-08 08:57:10 51°14.481 2°54.63 -999 -999 -999 -999
2007-11-08 08:57:15 51°14.488 2°54.606 -999 -999 -999 -999
2007-11-08 08:57:20 51°14.495 2°54.581 -999 -999 -999 -999
2007-11-08 08:57:25 51°14.502 2°54.556 -999 -999 -999 -999
2007-11-08 08:57:30 51°14.509 2°54.531 -999 -999 -999 -999
2007-11-08 08:57:35 51°14.517 2°54.506 -999 -999 -999 -999
2007-11-08 08:57:40 51°14.524 2°54.481 -999 -999 -999 -999
2007-11-08 08:57:45 51°14.53 2°54.456 -999 -999 -999 -999
2007-11-08 08:57:50 51°14.536 2°54.431 -999 -999 -999 -999
2007-11-08 08:57:54 51°14.542 2°54.411 -999 -999 -999 -999
2007-11-08 08:57:59 51°14.548 2°54.386 -999 -999 -999 -999
2007-11-08 08:58:06 51°14.557 2°54.351 -999 -999 -999 -999
2007-11-08 08:58:11 51°14.564 2°54.325 -999 -999 -999 -999
2007-11-08 08:58:15 51°14.569 2°54.305 -999 -999 -999 -999
2007-11-08 08:58:21 51°14.577 2°54.275 -999 -999 -999 -999
2007-11-08 08:58:26 51°14.584 2°54.25 -999 -999 -999 -999
2007-11-08 08:58:32 51°14.593 2°54.22 -999 -999 -999 -999
2007-11-08 08:58:37 51°14.6 2°54.195 -999 -999 -999 -999
2007-11-08 08:58:42 51°14.607 2°54.171 -999 -999 -999 -999
2007-11-08 08:58:47 51°14.613 2°54.145 -999 -999 -999 -999
2007-11-08 08:58:52 51°14.62 2°54.12 -999 -999 -999 -999
2007-11-08 08:58:57 51°14.626 2°54.095 -999 -999 -999 -999
2007-11-08 08:59:02 51°14.633 2°54.069 -999 -999 -999 -999
2007-11-08 08:59:07 51°14.639 2°54.044 -999 -999 -999 -999
2007-11-08 08:59:12 51°14.645 2°54.018 -999 -999 -999 -999
2007-11-08 08:59:17 51°14.652 2°53.993 -999 -999 -999 -999
2007-11-08 08:59:22 51°14.658 2°53.968 -999 -999 -999 -999
2007-11-08 08:59:28 51°14.666 2°53.938 -999 -999 -999 -999
2007-11-08 08:59:32 51°14.672 2°53.918 -999 -999 -999 -999
2007-11-08 08:59:37 51°14.679 2°53.894 -999 -999 -999 -999
2007-11-08 08:59:42 51°14.687 2°53.87 -999 -999 -999 -999
2007-11-08 08:59:48 51°14.697 2°53.841 -999 -999 -999 -999
2007-11-08 08:59:52 51°14.703 2°53.821 -999 -999 -999 -999
2007-11-08 08:59:57 51°14.712 2°53.798 -999 -999 -999 -999
2007-11-08 09:00:02 51°14.72 2°53.774 -999 -999 -999 -999
2007-11-08 09:00:07 51°14.728 2°53.75 -999 -999 -999 -999
2007-11-08 09:00:12 51°14.736 2°53.727 -999 -999 -999 -999
2007-11-08 09:00:17 51°14.744 2°53.703 -999 -999 -999 -999
2007-11-08 09:00:22 51°14.753 2°53.68 -999 -999 -999 -999
2007-11-08 09:00:27 51°14.762 2°53.657 -999 -999 -999 -999
2007-11-08 09:00:32 51°14.77 2°53.634 -999 -999 -999 -999
2007-11-08 09:00:36 51°14.777 2°53.616 -999 -999 -999 -999
2007-11-08 09:00:41 51°14.786 2°53.592 -999 -999 -999 -999
2007-11-08 09:00:46 51°14.794 2°53.569 -999 -999 -999 -999
2007-11-08 09:00:51 51°14.803 2°53.546 -999 -999 -999 -999
2007-11-08 09:00:56 51°14.812 2°53.524 -999 -999 -999 -999
2007-11-08 09:01:01 51°14.821 2°53.5 -999 -999 -999 -999
2007-11-08 09:01:06 51°14.83 2°53.477 -999 -999 -999 -999
2007-11-08 09:01:11 51°14.838 2°53.454 -999 -999 -999 -999
2007-11-08 09:01:16 51°14.847 2°53.431 -999 -999 -999 -999
2007-11-08 09:01:20 51°14.854 2°53.412 -999 -999 -999 -999
2007-11-08 09:01:26 51°14.864 2°53.385 -999 -999 -999 -999
2007-11-08 09:01:30 51°14.87 2°53.366 -999 -999 -999 -999
2007-11-08 09:01:35 51°14.879 2°53.343 -999 -999 -999 -999
2007-11-08 09:01:40 51°14.887 2°53.319 -999 -999 -999 -999
2007-11-08 09:01:45 51°14.896 2°53.296 -999 -999 -999 -999
2007-11-08 09:01:50 51°14.904 2°53.273 -999 -999 -999 -999
2007-11-08 09:01:55 51°14.912 2°53.25 -999 -999 -999 -999
2007-11-08 09:02:00 51°14.921 2°53.226 -999 -999 -999 -999
2007-11-08 09:02:05 51°14.929 2°53.203 -999 -999 -999 -999
2007-11-08 09:02:10 51°14.937 2°53.179 -999 -999 -999 -999
2007-11-08 09:02:15 51°14.946 2°53.156 -999 -999 -999 -999
2007-11-08 09:02:20 51°14.954 2°53.133 -999 -999 -999 -999
2007-11-08 09:02:24 51°14.96 2°53.114 -999 -999 -999 -999
2007-11-08 09:02:29 51°14.968 2°53.09 -999 -999 -999 -999
2007-11-08 09:02:35 51°14.978 2°53.062 -999 -999 -999 -999
2007-11-08 09:02:39 51°14.985 2°53.043 -999 -999 -999 -999
2007-11-08 09:02:44 51°14.993 2°53.02 -999 -999 -999 -999
2007-11-08 09:02:49 51°15.002 2°52.996 -999 -999 -999 -999
2007-11-08 09:02:54 51°15.01 2°52.972 -999 -999 -999 -999
2007-11-08 09:02:59 51°15.018 2°52.949 -999 -999 -999 -999
2007-11-08 09:03:04 51°15.026 2°52.926 -999 -999 -999 -999
2007-11-08 09:03:08 51°15.033 2°52.907 -999 -999 -999 -999
2007-11-08 09:03:14 51°15.043 2°52.878 -999 -999 -999 -999
2007-11-08 09:03:19 51°15.051 2°52.855 -999 -999 -999 -999
2007-11-08 09:03:24 51°15.059 2°52.831 -999 -999 -999 -999
2007-11-08 09:03:28 51°15.065 2°52.812 -999 -999 -999 -999
2007-11-08 09:03:33 51°15.073 2°52.788 -999 -999 -999 -999
2007-11-08 09:03:39 51°15.083 2°52.76 -999 -999 -999 -999
2007-11-08 09:03:44 51°15.091 2°52.736 -999 -999 -999 -999
2007-11-08 09:03:48 51°15.097 2°52.717 -999 -999 -999 -999
2007-11-08 09:03:53 51°15.105 2°52.693 -999 -999 -999 -999
2007-11-08 09:03:58 51°15.114 2°52.67 -999 -999 -999 -999
2007-11-08 09:04:04 51°15.124 2°52.641 -999 -999 -999 -999
2007-11-08 09:04:08 51°15.131 2°52.622 -999 -999 -999 -999
2007-11-08 09:04:13 51°15.139 2°52.599 -999 -999 -999 -999
2007-11-08 09:04:19 51°15.149 2°52.57 -999 -999 -999 -999
2007-11-08 09:04:24 51°15.158 2°52.547 -999 -999 -999 -999
2007-11-08 09:04:28 51°15.164 2°52.529 -999 -999 -999 -999
2007-11-08 09:04:34 51°15.175 2°52.5 -999 -999 -999 -999
2007-11-08 09:04:38 51°15.182 2°52.482 -999 -999 -999 -999
2007-11-08 09:04:43 51°15.19 2°52.459 -999 -999 -999 -999
2007-11-08 09:04:48 51°15.198 2°52.436 -999 -999 -999 -999
2007-11-08 09:04:54 51°15.208 2°52.407 -999 -999 -999 -999
2007-11-08 09:04:58 51°15.215 2°52.389 -999 -999 -999 -999
2007-11-08 09:05:04 51°15.225 2°52.361 -999 -999 -999 -999
2007-11-08 09:05:08 51°15.232 2°52.342 -999 -999 -999 -999
2007-11-08 09:05:13 51°15.24 2°52.318 -999 -999 -999 -999
2007-11-08 09:05:19 51°15.25 2°52.29 -999 -999 -999 -999
2007-11-08 09:05:24 51°15.258 2°52.266 -999 -999 -999 -999
2007-11-08 09:05:28 51°15.265 2°52.247 -999 -999 -999 -999
2007-11-08 09:05:34 51°15.275 2°52.218 -999 -999 -999 -999
2007-11-08 09:05:39 51°15.283 2°52.195 -999 -999 -999 -999
2007-11-08 09:05:44 51°15.291 2°52.172 -999 -999 -999 -999
2007-11-08 09:05:48 51°15.298 2°52.153 -999 -999 -999 -999
2007-11-08 09:05:53 51°15.307 2°52.13 -999 -999 -999 -999
2007-11-08 09:05:59 51°15.317 2°52.103 -999 -999 -999 -999
2007-11-08 09:06:04 51°15.326 2°52.079 -999 -999 -999 -999
2007-11-08 09:06:08 51°15.332 2°52.061 -999 -999 -999 -999
2007-11-08 09:06:13 51°15.341 2°52.038 -999 -999 -999 -999
2007-11-08 09:06:18 51°15.35 2°52.014 -999 -999 -999 -999
2007-11-08 09:06:24 51°15.36 2°51.987 -999 -999 -999 -999
2007-11-08 09:06:28 51°15.367 2°51.968 -999 -999 -999 -999
2007-11-08 09:06:34 51°15.377 2°51.939 -999 -999 -999 -999
2007-11-08 09:06:38 51°15.383 2°51.921 -999 -999 -999 -999
2007-11-08 09:06:43 51°15.392 2°51.897 -999 -999 -999 -999
2007-11-08 09:06:48 51°15.4 2°51.874 -999 -999 -999 -999
2007-11-08 09:06:53 51°15.408 2°51.85 -999 -999 -999 -999
2007-11-08 09:06:58 51°15.416 2°51.827 -999 -999 -999 -999
2007-11-08 09:07:04 51°15.425 2°51.799 -999 -999 -999 -999
2007-11-08 09:07:08 51°15.432 2°51.78 -999 -999 -999 -999
2007-11-08 09:07:13 51°15.44 2°51.757 -999 -999 -999 -999
2007-11-08 09:07:19 51°15.45 2°51.729 -999 -999 -999 -999
2007-11-08 09:07:24 51°15.458 2°51.706 -999 -999 -999 -999
2007-11-08 09:07:28 51°15.465 2°51.687 -999 -999 -999 -999
2007-11-08 09:07:34 51°15.476 2°51.66 -999 -999 -999 -999
2007-11-08 09:07:39 51°15.485 2°51.637 -999 -999 -999 -999
2007-11-08 09:07:43 51°15.492 2°51.618 -999 -999 -999 -999
2007-11-08 09:07:48 51°15.5 2°51.595 -999 -999 -999 -999
2007-11-08 09:07:53 51°15.509 2°51.572 -999 -999 -999 -999
2007-11-08 09:07:59 51°15.518 2°51.544 -999 -999 -999 -999
2007-11-08 09:08:04 51°15.527 2°51.521 -999 -999 -999 -999
2007-11-08 09:08:08 51°15.533 2°51.502 -999 -999 -999 -999
2007-11-08 09:08:13 51°15.541 2°51.479 -999 -999 -999 -999
2007-11-08 09:08:19 51°15.551 2°51.452 -999 -999 -999 -999
2007-11-08 09:08:24 51°15.559 2°51.429 -999 -999 -999 -999
2007-11-08 09:08:28 51°15.566 2°51.411 -999 -999 -999 -999
2007-11-08 09:08:33 51°15.574 2°51.388 -999 -999 -999 -999
2007-11-08 09:08:38 51°15.583 2°51.365 -999 -999 -999 -999
2007-11-08 09:08:44 51°15.593 2°51.337 -999 -999 -999 -999
2007-11-08 09:08:48 51°15.599 2°51.318 -999 -999 -999 -999
2007-11-08 09:08:54 51°15.61 2°51.291 -999 -999 -999 -999
2007-11-08 09:08:58 51°15.617 2°51.272 -999 -999 -999 -999
2007-11-08 09:09:03 51°15.625 2°51.25 -999 -999 -999 -999
2007-11-08 09:09:08 51°15.634 2°51.227 -999 -999 -999 -999
2007-11-08 09:09:14 51°15.645 2°51.199 -999 -999 -999 -999
2007-11-08 09:09:18 51°15.651 2°51.181 -999 -999 -999 -999
2007-11-08 09:09:24 51°15.662 2°51.154 -999 -999 -999 -999
2007-11-08 09:09:28 51°15.668 2°51.135 -999 -999 -999 -999
2007-11-08 09:09:33 51°15.677 2°51.113 -999 -999 -999 -999
2007-11-08 09:09:38 51°15.685 2°51.09 -999 -999 -999 -999
2007-11-08 09:09:44 51°15.695 2°51.062 -999 -999 -999 -999
2007-11-08 09:09:48 51°15.702 2°51.044 -999 -999 -999 -999
2007-11-08 09:09:54 51°15.712 2°51.017 -999 -999 -999 -999
2007-11-08 09:09:59 51°15.72 2°50.994 -999 -999 -999 -999
2007-11-08 09:10:04 51°15.729 2°50.971 -999 -999 -999 -999
2007-11-08 09:10:08 51°15.735 2°50.953 -999 -999 -999 -999
2007-11-08 09:10:13 51°15.744 2°50.93 -999 -999 -999 -999
2007-11-08 09:10:19 51°15.754 2°50.902 -999 -999 -999 -999
2007-11-08 09:10:24 51°15.762 2°50.88 -999 -999 -999 -999
2007-11-08 09:10:28 51°15.769 2°50.862 -999 -999 -999 -999
2007-11-08 09:10:33 51°15.777 2°50.839 -999 -999 -999 -999
2007-11-08 09:10:38 51°15.786 2°50.816 -999 -999 -999 -999
2007-11-08 09:10:44 51°15.796 2°50.789 -999 -999 -999 -999
2007-11-08 09:10:48 51°15.803 2°50.771 -999 -999 -999 -999
2007-11-08 09:10:54 51°15.813 2°50.745 -999 -999 -999 -999
2007-11-08 09:10:58 51°15.82 2°50.726 -999 -999 -999 -999
2007-11-08 09:11:04 51°15.83 2°50.698 -999 -999 -999 -999
2007-11-08 09:11:08 51°15.837 2°50.68 -999 -999 -999 -999
2007-11-08 09:11:13 51°15.845 2°50.658 -999 -999 -999 -999
2007-11-08 09:11:18 51°15.854 2°50.635 -999 -999 -999 -999
2007-11-08 09:11:24 51°15.864 2°50.608 -999 -999 -999 -999
2007-11-08 09:11:28 51°15.871 2°50.59 -999 -999 -999 -999
2007-11-08 09:11:33 51°15.879 2°50.568 -999 -999 -999 -999
2007-11-08 09:11:38 51°15.888 2°50.545 -999 -999 -999 -999
2007-11-08 09:11:44 51°15.898 2°50.518 -999 -999 -999 -999
2007-11-08 09:11:48 51°15.905 2°50.5 -999 -999 -999 -999
2007-11-08 09:11:54 51°15.915 2°50.473 -999 -999 -999 -999
2007-11-08 09:11:59 51°15.923 2°50.45 -999 -999 -999 -999
2007-11-08 09:12:03 51°15.93 2°50.433 -999 -999 -999 -999
2007-11-08 09:12:08 51°15.939 2°50.41 -999 -999 -999 -999
2007-11-08 09:12:14 51°15.949 2°50.383 -999 -999 -999 -999
2007-11-08 09:12:19 51°15.958 2°50.361 -999 -999 -999 -999
2007-11-08 09:12:24 51°15.966 2°50.338 -999 -999 -999 -999
2007-11-08 09:12:28 51°15.973 2°50.321 -999 -999 -999 -999
2007-11-08 09:12:33 51°15.981 2°50.298 -999 -999 -999 -999
2007-11-08 09:12:38 51°15.99 2°50.276 -999 -999 -999 -999
2007-11-08 09:12:44 51°16 2°50.249 -999 -999 -999 -999
2007-11-08 09:12:48 51°16.006 2°50.231 -999 -999 -999 -999
2007-11-08 09:12:54 51°16.017 2°50.205 -999 -999 -999 -999
2007-11-08 09:12:58 51°16.023 2°50.187 -999 -999 -999 -999
2007-11-08 09:13:04 51°16.033 2°50.16 -999 -999 -999 -999
2007-11-08 09:13:08 51°16.04 2°50.142 -999 -999 -999 -999
2007-11-08 09:13:13 51°16.048 2°50.12 -999 -999 -999 -999
2007-11-08 09:13:18 51°16.056 2°50.098 -999 -999 -999 -999
2007-11-08 09:13:24 51°16.066 2°50.071 -999 -999 -999 -999
2007-11-08 09:13:28 51°16.073 2°50.053 -999 -999 -999 -999
2007-11-08 09:13:33 51°16.081 2°50.03 -999 -999 -999 -999
2007-11-08 09:13:38 51°16.089 2°50.008 -999 -999 -999 -999
2007-11-08 09:13:44 51°16.098 2°49.983 -999 -999 -999 -999
2007-11-08 09:13:48 51°16.104 2°49.966 -999 -999 -999 -999
2007-11-08 09:13:54 51°16.11 2°49.941 -999 -999 -999 -999
2007-11-08 09:13:59 51°16.114 2°49.922 -999 -999 -999 -999
2007-11-08 09:14:03 51°16.116 2°49.908 -999 -999 -999 -999
2007-11-08 09:14:08 51°16.119 2°49.891 -999 -999 -999 -999
2007-11-08 09:14:14 51°16.12 2°49.872 -999 -999 -999 -999
2007-11-08 09:14:18 51°16.121 2°49.86 -999 -999 -999 -999
2007-11-08 09:14:24 51°16.121 2°49.843 -999 -999 -999 -999
2007-11-08 09:14:28 51°16.122 2°49.833 -999 -999 -999 -999
2007-11-08 09:14:34 51°16.121 2°49.818 -999 -999 -999 -999
2007-11-08 09:14:38 51°16.121 2°49.809 -999 -999 -999 -999
2007-11-08 09:14:44 51°16.119 2°49.796 -999 -999 -999 -999
2007-11-08 09:14:48 51°16.119 2°49.788 -999 -999 -999 -999
2007-11-08 09:14:53 51°16.118 2°49.778 -999 -999 -999 -999
2007-11-08 09:14:59 51°16.116 2°49.767 -999 -999 -999 -999
2007-11-08 09:15:04 51°16.115 2°49.758 -999 -999 -999 -999
2007-11-08 09:15:08 51°16.114 2°49.752 -999 -999 -999 -999
2007-11-08 09:15:13 51°16.113 2°49.744 -999 -999 -999 -999
2007-11-08 09:15:18 51°16.112 2°49.736 -999 -999 -999 -999
2007-11-08 09:15:24 51°16.111 2°49.727 -999 -999 -999 -999
2007-11-08 09:15:28 51°16.11 2°49.721 -999 -999 -999 -999
2007-11-08 09:15:33 51°16.109 2°49.714 -999 -999 -999 -999
2007-11-08 09:15:38 51°16.108 2°49.707 -999 -999 -999 -999
2007-11-08 09:15:44 51°16.107 2°49.699 -999 -999 -999 -999
2007-11-08 09:15:48 51°16.107 2°49.694 -999 -999 -999 -999
2007-11-08 09:15:54 51°16.106 2°49.685 -999 -999 -999 -999
2007-11-08 09:15:59 51°16.106 2°49.678 -999 -999 -999 -999
2007-11-08 09:16:03 51°16.105 2°49.673 -999 -999 -999 -999
2007-11-08 09:16:08 51°16.104 2°49.665 -999 -999 -999 -999
2007-11-08 09:16:14 51°16.104 2°49.656 -999 -999 -999 -999
2007-11-08 09:16:18 51°16.103 2°49.65 -999 -999 -999 -999
2007-11-08 09:16:24 51°16.103 2°49.641 -999 -999 -999 -999
2007-11-08 09:16:28 51°16.102 2°49.635 -999 -999 -999 -999
2007-11-08 09:16:33 51°16.102 2°49.627 -999 -999 -999 -999
2007-11-08 09:16:38 51°16.101 2°49.619 -999 -999 -999 -999
2007-11-08 09:16:44 51°16.101 2°49.608 -999 -999 -999 -999
2007-11-08 09:16:48 51°16.101 2°49.601 -999 -999 -999 -999
2007-11-08 09:16:54 51°16.1 2°49.59 -999 -999 -999 -999
2007-11-08 09:16:59 51°16.099 2°49.581 -999 -999 -999 -999
2007-11-08 09:17:04 51°16.099 2°49.571 -999 -999 -999 -999
2007-11-08 09:17:08 51°16.099 2°49.564 -999 -999 -999 -999
2007-11-08 09:17:13 51°16.098 2°49.554 -999 -999 -999 -999
2007-11-08 09:17:19 51°16.098 2°49.542 -999 -999 -999 -999
2007-11-08 09:17:24 51°16.097 2°49.532 -999 -999 -999 -999
2007-11-08 09:17:28 51°16.097 2°49.524 -999 -999 -999 -999
2007-11-08 09:17:33 51°16.096 2°49.514 -999 -999 -999 -999
2007-11-08 09:17:38 51°16.095 2°49.504 -999 -999 -999 -999
2007-11-08 09:17:44 51°16.095 2°49.493 -999 -999 -999 -999
2007-11-08 09:17:48 51°16.094 2°49.484 -999 -999 -999 -999
2007-11-08 09:17:54 51°16.093 2°49.472 -999 -999 -999 -999
2007-11-08 09:17:58 51°16.093 2°49.463 -999 -999 -999 -999
2007-11-08 09:18:04 51°16.092 2°49.45 -999 -999 -999 -999
2007-11-08 09:18:08 51°16.092 2°49.442 -999 -999 -999 -999
2007-11-08 09:18:13 51°16.091 2°49.431 -999 -999 -999 -999
2007-11-08 09:18:18 51°16.091 2°49.42 -999 -999 -999 -999
2007-11-08 09:18:24 51°16.09 2°49.407 -999 -999 -999 -999
2007-11-08 09:18:28 51°16.09 2°49.398 -999 -999 -999 -999
2007-11-08 09:18:33 51°16.089 2°49.386 -999 -999 -999 -999
2007-11-08 09:18:38 51°16.089 2°49.375 -999 -999 -999 -999
2007-11-08 09:18:44 51°16.088 2°49.361 -999 -999 -999 -999
2007-11-08 09:18:48 51°16.088 2°49.352 -999 -999 -999 -999
2007-11-08 09:18:54 51°16.087 2°49.338 -999 -999 -999 -999
2007-11-08 09:18:59 51°16.086 2°49.326 -999 -999 -999 -999
2007-11-08 09:19:04 51°16.086 2°49.315 -999 -999 -999 -999
2007-11-08 09:19:08 51°16.086 2°49.305 -999 -999 -999 -999
2007-11-08 09:19:14 51°16.085 2°49.291 -999 -999 -999 -999
2007-11-08 09:19:19 51°16.084 2°49.279 -999 -999 -999 -999
2007-11-08 09:19:24 51°16.084 2°49.267 -999 -999 -999 -999
2007-11-08 09:19:28 51°16.083 2°49.258 -999 -999 -999 -999
2007-11-08 09:19:33 51°16.083 2°49.247 -999 -999 -999 -999
2007-11-08 09:19:38 51°16.082 2°49.236 -999 -999 -999 -999
2007-11-08 09:19:44 51°16.081 2°49.223 -999 -999 -999 -999
2007-11-08 09:19:48 51°16.081 2°49.215 -999 -999 -999 -999
2007-11-08 09:19:53 51°16.08 2°49.204 -999 -999 -999 -999
2007-11-08 09:19:59 51°16.079 2°49.192 -999 -999 -999 -999
2007-11-08 09:20:04 51°16.079 2°49.182 -999 -999 -999 -999
2007-11-08 09:20:08 51°16.078 2°49.173 -999 -999 -999 -999
2007-11-08 09:20:14 51°16.077 2°49.161 -999 -999 -999 -999
2007-11-08 09:20:19 51°16.076 2°49.151 -999 -999 -999 -999
2007-11-08 09:20:23 51°16.076 2°49.143 -999 -999 -999 -999
2007-11-08 09:20:28 51°16.074 2°49.133 -999 -999 -999 -999
2007-11-08 09:20:34 51°16.074 2°49.122 -999 -999 -999 -999
2007-11-08 09:20:39 51°16.073 2°49.112 -999 -999 -999 -999
2007-11-08 09:20:43 51°16.074 2°49.104 -999 -999 -999 -999
2007-11-08 09:20:48 51°16.072 2°49.094 -999 -999 -999 -999
2007-11-08 09:20:54 51°16.072 2°49.082 -999 -999 -999 -999
2007-11-08 09:20:59 51°16.071 2°49.073 -999 -999 -999 -999
2007-11-08 09:21:04 51°16.071 2°49.063 -999 -999 -999 -999
2007-11-08 09:21:08 51°16.07 2°49.055 -999 -999 -999 -999
2007-11-08 09:21:14 51°16.069 2°49.044 -999 -999 -999 -999
2007-11-08 09:21:19 51°16.069 2°49.035 -999 -999 -999 -999
2007-11-08 09:21:24 51°16.068 2°49.025 -999 -999 -999 -999
2007-11-08 09:21:28 51°16.068 2°49.017 -999 -999 -999 -999
2007-11-08 09:21:33 51°16.067 2°49.007 -999 -999 -999 -999
2007-11-08 09:21:38 51°16.067 2°48.998 -999 -999 -999 -999
2007-11-08 09:21:44 51°16.066 2°48.986 -999 -999 -999 -999
2007-11-08 09:21:48 51°16.066 2°48.978 -999 -999 -999 -999
2007-11-08 09:21:54 51°16.065 2°48.966 -999 -999 -999 -999
2007-11-08 09:21:59 51°16.064 2°48.956 -999 -999 -999 -999
2007-11-08 09:22:04 51°16.065 2°48.946 -999 -999 -999 -999
2007-11-08 09:22:08 51°16.063 2°48.938 -999 -999 -999 -999
2007-11-08 09:22:13 51°16.064 2°48.928 -999 -999 -999 -999
2007-11-08 09:22:18 51°16.063 2°48.918 -999 -999 -999 -999
2007-11-08 09:22:24 51°16.062 2°48.907 -999 -999 -999 -999
2007-11-08 09:22:28 51°16.062 2°48.899 -999 -999 -999 -999
2007-11-08 09:22:33 51°16.062 2°48.889 -999 -999 -999 -999
2007-11-08 09:22:38 51°16.061 2°48.879 -999 -999 -999 -999
2007-11-08 09:22:44 51°16.061 2°48.867 -999 -999 -999 -999
2007-11-08 09:22:48 51°16.06 2°48.859 -999 -999 -999 -999
2007-11-08 09:22:54 51°16.061 2°48.847 -999 -999 -999 -999
2007-11-08 09:22:59 51°16.059 2°48.837 -999 -999 -999 -999
2007-11-08 09:23:03 51°16.06 2°48.829 -999 -999 -999 -999
2007-11-08 09:23:08 51°16.059 2°48.819 -999 -999 -999 -999
2007-11-08 09:23:14 51°16.059 2°48.807 -999 -999 -999 -999
2007-11-08 09:23:18 51°16.058 2°48.8 -999 -999 -999 -999
2007-11-08 09:23:24 51°16.058 2°48.787 -999 -999 -999 -999
2007-11-08 09:23:28 51°16.057 2°48.78 -999 -999 -999 -999
2007-11-08 09:23:34 51°16.057 2°48.768 -999 -999 -999 -999
2007-11-08 09:23:38 51°16.056 2°48.761 -999 -999 -999 -999
2007-11-08 09:23:44 51°16.055 2°48.75 -999 -999 -999 -999
2007-11-08 09:23:48 51°16.055 2°48.742 -999 -999 -999 -999
2007-11-08 09:23:54 51°16.054 2°48.731 -999 -999 -999 -999
2007-11-08 09:23:59 51°16.054 2°48.721 -999 -999 -999 -999
2007-11-08 09:24:04 51°16.053 2°48.712 -999 -999 -999 -999
2007-11-08 09:24:08 51°16.053 2°48.704 -999 -999 -999 -999
2007-11-08 09:24:13 51°16.052 2°48.694 -999 -999 -999 -999
2007-11-08 09:24:19 51°16.052 2°48.683 -999 -999 -999 -999
2007-11-08 09:24:24 51°16.051 2°48.673 -999 -999 -999 -999
2007-11-08 09:24:28 51°16.051 2°48.665 -999 -999 -999 -999
2007-11-08 09:24:33 51°16.051 2°48.655 -999 -999 -999 -999
2007-11-08 09:24:38 51°16.05 2°48.646 -999 -999 -999 -999
2007-11-08 09:24:44 51°16.05 2°48.634 -999 -999 -999 -999
2007-11-08 09:24:48 51°16.05 2°48.626 -999 -999 -999 -999
2007-11-08 09:24:54 51°16.049 2°48.615 -999 -999 -999 -999
2007-11-08 09:24:59 51°16.049 2°48.605 -999 -999 -999 -999
2007-11-08 09:25:03 51°16.048 2°48.597 -999 -999 -999 -999
2007-11-08 09:25:08 51°16.048 2°48.587 -999 -999 -999 -999
2007-11-08 09:25:14 51°16.047 2°48.576 -999 -999 -999 -999
2007-11-08 09:25:18 51°16.047 2°48.568 -999 -999 -999 -999
2007-11-08 09:25:24 51°16.047 2°48.557 -999 -999 -999 -999
2007-11-08 09:25:28 51°16.046 2°48.549 -999 -999 -999 -999
2007-11-08 09:25:34 51°16.046 2°48.537 -999 -999 -999 -999
2007-11-08 09:25:38 51°16.046 2°48.53 -999 -999 -999 -999
2007-11-08 09:25:44 51°16.045 2°48.518 -999 -999 -999 -999
2007-11-08 09:25:48 51°16.045 2°48.511 -999 -999 -999 -999
2007-11-08 09:25:54 51°16.044 2°48.5 -999 -999 -999 -999
2007-11-08 09:25:59 51°16.044 2°48.49 -999 -999 -999 -999
2007-11-08 09:26:04 51°16.044 2°48.481 -999 -999 -999 -999
2007-11-08 09:26:08 51°16.044 2°48.473 -999 -999 -999 -999
2007-11-08 09:26:13 51°16.043 2°48.464 -999 -999 -999 -999
2007-11-08 09:26:19 51°16.043 2°48.452 -999 -999 -999 -999
2007-11-08 09:26:24 51°16.043 2°48.442 -999 -999 -999 -999
2007-11-08 09:26:28 51°16.042 2°48.434 -999 -999 -999 -999
2007-11-08 09:26:33 51°16.042 2°48.424 -999 -999 -999 -999
2007-11-08 09:26:38 51°16.041 2°48.415 -999 -999 -999 -999
2007-11-08 09:26:44 51°16.041 2°48.403 -999 -999 -999 -999
2007-11-08 09:26:48 51°16.04 2°48.395 -999 -999 -999 -999
2007-11-08 09:26:54 51°16.04 2°48.384 -999 -999 -999 -999
2007-11-08 09:26:58 51°16.039 2°48.376 -999 -999 -999 -999
2007-11-08 09:27:04 51°16.039 2°48.364 -999 -999 -999 -999
2007-11-08 09:27:08 51°16.038 2°48.357 -999 -999 -999 -999
2007-11-08 09:27:14 51°16.038 2°48.346 -999 -999 -999 -999
2007-11-08 09:27:18 51°16.037 2°48.338 -999 -999 -999 -999
2007-11-08 09:27:24 51°16.037 2°48.326 -999 -999 -999 -999
2007-11-08 09:27:28 51°16.036 2°48.318 -999 -999 -999 -999
2007-11-08 09:27:33 51°16.036 2°48.309 -999 -999 -999 -999
2007-11-08 09:27:38 51°16.035 2°48.299 -999 -999 -999 -999
2007-11-08 09:27:44 51°16.035 2°48.287 -999 -999 -999 -999
2007-11-08 09:27:48 51°16.035 2°48.279 -999 -999 -999 -999
2007-11-08 09:27:54 51°16.035 2°48.267 -999 -999 -999 -999
2007-11-08 09:27:59 51°16.035 2°48.258 -999 -999 -999 -999
2007-11-08 09:28:04 51°16.034 2°48.248 -999 -999 -999 -999
2007-11-08 09:28:08 51°16.034 2°48.24 -999 -999 -999 -999
2007-11-08 09:28:14 51°16.034 2°48.228 -999 -999 -999 -999
2007-11-08 09:28:19 51°16.034 2°48.218 -999 -999 -999 -999
2007-11-08 09:28:24 51°16.034 2°48.208 -999 -999 -999 -999
2007-11-08 09:28:28 51°16.034 2°48.2 -999 -999 -999 -999
2007-11-08 09:28:33 51°16.034 2°48.19 -999 -999 -999 -999
2007-11-08 09:28:39 51°16.034 2°48.178 -999 -999 -999 -999
2007-11-08 09:28:44 51°16.033 2°48.168 -999 -999 -999 -999
2007-11-08 09:28:48 51°16.034 2°48.16 -999 -999 -999 -999
2007-11-08 09:28:54 51°16.033 2°48.148 -999 -999 -999 -999
2007-11-08 09:28:58 51°16.034 2°48.14 -999 -999 -999 -999
2007-11-08 09:29:04 51°16.033 2°48.127 -999 -999 -999 -999
2007-11-08 09:29:08 51°16.033 2°48.119 -999 -999 -999 -999
2007-11-08 09:29:13 51°16.033 2°48.109 -999 -999 -999 -999
2007-11-08 09:29:18 51°16.033 2°48.099 -999 -999 -999 -999
2007-11-08 09:29:24 51°16.033 2°48.087 -999 -999 -999 -999
2007-11-08 09:29:28 51°16.033 2°48.079 -999 -999 -999 -999
2007-11-08 09:29:33 51°16.032 2°48.07 -999 -999 -999 -999
2007-11-08 09:29:38 51°16.032 2°48.06 -999 -999 -999 -999
2007-11-08 09:29:44 51°16.031 2°48.049 -999 -999 -999 -999
2007-11-08 09:29:48 51°16.031 2°48.042 -999 -999 -999 -999
2007-11-08 09:29:54 51°16.029 2°48.03 -999 -999 -999 -999
2007-11-08 09:29:59 51°16.028 2°48.021 -999 -999 -999 -999
2007-11-08 09:30:04 51°16.026 2°48.012 -999 -999 -999 -999
2007-11-08 09:30:08 51°16.026 2°48.004 -999 -999 -999 -999
2007-11-08 09:30:14 51°16.024 2°47.992 -999 -999 -999 -999
2007-11-08 09:30:19 51°16.023 2°47.983 -999 -999 -999 -999
2007-11-08 09:30:24 51°16.022 2°47.973 -999 -999 -999 -999
2007-11-08 09:30:28 51°16.021 2°47.965 -999 -999 -999 -999
2007-11-08 09:30:34 51°16.02 2°47.954 -999 -999 -999 -999
2007-11-08 09:30:38 51°16.019 2°47.946 -999 -999 -999 -999
2007-11-08 09:30:44 51°16.017 2°47.934 -999 -999 -999 -999
2007-11-08 09:30:48 51°16.017 2°47.926 -999 -999 -999 -999
2007-11-08 09:30:54 51°16.015 2°47.914 -999 -999 -999 -999
2007-11-08 09:30:59 51°16.014 2°47.904 -999 -999 -999 -999
2007-11-08 09:31:04 51°16.012 2°47.895 -999 -999 -999 -999
2007-11-08 09:31:08 51°16.012 2°47.888 -999 -999 -999 -999
2007-11-08 09:31:13 51°16.01 2°47.878 -999 -999 -999 -999
2007-11-08 09:31:18 51°16.009 2°47.869 -999 -999 -999 -999
2007-11-08 09:31:24 51°16.008 2°47.859 -999 -999 -999 -999
2007-11-08 09:31:28 51°16.006 2°47.852 -999 -999 -999 -999
2007-11-08 09:31:33 51°16.005 2°47.843 -999 -999 -999 -999
2007-11-08 09:31:38 51°16.003 2°47.833 -999 -999 -999 -999
2007-11-08 09:31:44 51°16.002 2°47.822 -999 -999 -999 -999
2007-11-08 09:31:48 51°16.001 2°47.814 -999 -999 -999 -999
2007-11-08 09:31:54 51°15.999 2°47.803 -999 -999 -999 -999
2007-11-08 09:31:59 51°15.998 2°47.793 -999 -999 -999 -999
2007-11-08 09:32:03 51°15.997 2°47.786 -999 -999 -999 -999
2007-11-08 09:32:08 51°15.996 2°47.776 -999 -999 -999 -999
2007-11-08 09:32:14 51°15.994 2°47.765 -999 -999 -999 -999
2007-11-08 09:32:18 51°15.993 2°47.757 -999 -999 -999 -999
2007-11-08 09:32:24 51°15.991 2°47.745 -999 -999 -999 -999
2007-11-08 09:32:28 51°15.991 2°47.737 -999 -999 -999 -999
2007-11-08 09:32:34 51°15.989 2°47.725 -999 -999 -999 -999
2007-11-08 09:32:38 51°15.988 2°47.717 -999 -999 -999 -999
2007-11-08 09:32:44 51°15.986 2°47.705 -999 -999 -999 -999
2007-11-08 09:32:48 51°15.985 2°47.697 -999 -999 -999 -999
2007-11-08 09:32:54 51°15.983 2°47.686 -999 -999 -999 -999
2007-11-08 09:32:59 51°15.981 2°47.676 -999 -999 -999 -999
2007-11-08 09:33:04 51°15.979 2°47.666 -999 -999 -999 -999
2007-11-08 09:33:08 51°15.978 2°47.658 -999 -999 -999 -999
2007-11-08 09:33:13 51°15.976 2°47.649 -999 -999 -999 -999
2007-11-08 09:33:18 51°15.973 2°47.639 -999 -999 -999 -999
2007-11-08 09:33:24 51°15.97 2°47.628 -999 -999 -999 -999
2007-11-08 09:33:28 51°15.969 2°47.621 -999 -999 -999 -999
2007-11-08 09:33:33 51°15.967 2°47.612 -999 -999 -999 -999
2007-11-08 09:33:38 51°15.965 2°47.602 -999 -999 -999 -999
2007-11-08 09:33:44 51°15.962 2°47.591 -999 -999 -999 -999
2007-11-08 09:33:48 51°15.961 2°47.583 -999 -999 -999 -999
2007-11-08 09:33:54 51°15.958 2°47.572 -999 -999 -999 -999
2007-11-08 09:33:59 51°15.956 2°47.563 -999 -999 -999 -999
2007-11-08 09:34:03 51°15.955 2°47.555 -999 -999 -999 -999
2007-11-08 09:34:08 51°15.953 2°47.545 -999 -999 -999 -999
2007-11-08 09:34:14 51°15.951 2°47.533 -999 -999 -999 -999
2007-11-08 09:34:18 51°15.949 2°47.526 -999 -999 -999 -999
2007-11-08 09:34:24 51°15.947 2°47.514 -999 -999 -999 -999
2007-11-08 09:34:28 51°15.945 2°47.507 -999 -999 -999 -999
2007-11-08 09:34:34 51°15.943 2°47.495 -999 -999 -999 -999
2007-11-08 09:34:38 51°15.941 2°47.488 -999 -999 -999 -999
2007-11-08 09:34:44 51°15.939 2°47.476 -999 -999 -999 -999
2007-11-08 09:34:48 51°15.937 2°47.469 -999 -999 -999 -999
2007-11-08 09:34:54 51°15.935 2°47.458 -999 -999 -999 -999
2007-11-08 09:34:59 51°15.933 2°47.448 -999 -999 -999 -999
2007-11-08 09:35:04 51°15.931 2°47.439 -999 -999 -999 -999
2007-11-08 09:35:08 51°15.929 2°47.432 -999 -999 -999 -999
2007-11-08 09:35:14 51°15.927 2°47.42 -999 -999 -999 -999
2007-11-08 09:35:19 51°15.924 2°47.411 -999 -999 -999 -999
2007-11-08 09:35:24 51°15.923 2°47.401 -999 -999 -999 -999
2007-11-08 09:35:28 51°15.921 2°47.394 -999 -999 -999 -999
2007-11-08 09:35:33 51°15.919 2°47.384 -999 -999 -999 -999
2007-11-08 09:35:39 51°15.917 2°47.372 -999 -999 -999 -999
2007-11-08 09:35:44 51°15.915 2°47.363 -999 -999 -999 -999
2007-11-08 09:35:48 51°15.913 2°47.355 -999 -999 -999 -999
2007-11-08 09:35:54 51°15.911 2°47.343 -999 -999 -999 -999
2007-11-08 09:35:58 51°15.909 2°47.335 -999 -999 -999 -999
2007-11-08 09:36:04 51°15.906 2°47.324 -999 -999 -999 -999
2007-11-08 09:36:08 51°15.905 2°47.316 -999 -999 -999 -999
2007-11-08 09:36:14 51°15.903 2°47.304 -999 -999 -999 -999
2007-11-08 09:36:18 51°15.9 2°47.296 -999 -999 -999 -999
2007-11-08 09:36:24 51°15.897 2°47.285 -999 -999 -999 -999
2007-11-08 09:36:28 51°15.895 2°47.277 -999 -999 -999 -999
2007-11-08 09:36:33 51°15.892 2°47.268 -999 -999 -999 -999
2007-11-08 09:36:38 51°15.89 2°47.259 -999 -999 -999 -999
2007-11-08 09:36:44 51°15.886 2°47.249 -999 -999 -999 -999
2007-11-08 09:36:48 51°15.883 2°47.242 -999 -999 -999 -999
2007-11-08 09:36:54 51°15.881 2°47.231 -999 -999 -999 -999
2007-11-08 09:36:59 51°15.877 2°47.222 -999 -999 -999 -999
2007-11-08 09:37:04 51°15.874 2°47.213 -999 -999 -999 -999
2007-11-08 09:37:08 51°15.871 2°47.206 -999 -999 -999 -999
2007-11-08 09:37:14 51°15.868 2°47.195 -999 -999 -999 -999
2007-11-08 09:37:19 51°15.865 2°47.186 -999 -999 -999 -999
2007-11-08 09:37:24 51°15.861 2°47.178 -999 -999 -999 -999
2007-11-08 09:37:28 51°15.859 2°47.171 -999 -999 -999 -999
2007-11-08 09:37:34 51°15.855 2°47.161 -999 -999 -999 -999
2007-11-08 09:37:39 51°15.852 2°47.153 -999 -999 -999 -999
2007-11-08 09:37:44 51°15.848 2°47.145 -999 -999 -999 -999
2007-11-08 09:37:48 51°15.846 2°47.139 -999 -999 -999 -999
2007-11-08 09:37:54 51°15.841 2°47.129 -999 -999 -999 -999
2007-11-08 09:37:58 51°15.839 2°47.123 -999 -999 -999 -999
2007-11-08 09:38:04 51°15.835 2°47.113 -999 -999 -999 -999
2007-11-08 09:38:08 51°15.833 2°47.107 -999 -999 -999 -999
2007-11-08 09:38:13 51°15.83 2°47.099 -999 -999 -999 -999
2007-11-08 09:38:18 51°15.827 2°47.09 -999 -999 -999 -999
2007-11-08 09:38:24 51°15.823 2°47.08 -999 -999 -999 -999
2007-11-08 09:38:28 51°15.821 2°47.074 -999 -999 -999 -999
2007-11-08 09:38:33 51°15.818 2°47.065 -999 -999 -999 -999
2007-11-08 09:38:38 51°15.815 2°47.056 -999 -999 -999 -999
2007-11-08 09:38:44 51°15.812 2°47.046 -999 -999 -999 -999
2007-11-08 09:38:48 51°15.81 2°47.039 -999 -999 -999 -999
2007-11-08 09:38:54 51°15.806 2°47.029 -999 -999 -999 -999
2007-11-08 09:38:59 51°15.803 2°47.02 -999 -999 -999 -999
2007-11-08 09:39:04 51°15.8 2°47.012 -999 -999 -999 -999
2007-11-08 09:39:08 51°15.797 2°47.005 -999 -999 -999 -999
2007-11-08 09:39:14 51°15.794 2°46.995 -999 -999 -999 -999
2007-11-08 09:39:19 51°15.791 2°46.986 -999 -999 -999 -999
2007-11-08 09:39:24 51°15.788 2°46.977 -999 -999 -999 -999
2007-11-08 09:39:28 51°15.785 2°46.971 -999 -999 -999 -999
2007-11-08 09:39:34 51°15.782 2°46.959 -999 -999 -999 -999
2007-11-08 09:39:38 51°15.779 2°46.953 -999 -999 -999 -999
2007-11-08 09:39:44 51°15.776 2°46.941 -999 -999 -999 -999
2007-11-08 09:39:48 51°15.774 2°46.933 -999 -999 -999 -999
2007-11-08 09:39:54 51°15.77 2°46.921 -999 -999 -999 -999
2007-11-08 09:39:59 51°15.767 2°46.912 -999 -999 -999 -999
2007-11-08 09:40:04 51°15.764 2°46.902 -999 -999 -999 -999
2007-11-08 09:40:08 51°15.761 2°46.894 -999 -999 -999 -999
2007-11-08 09:40:13 51°15.758 2°46.885 -999 -999 -999 -999
2007-11-08 09:40:18 51°15.755 2°46.875 -999 -999 -999 -999
2007-11-08 09:40:24 51°15.751 2°46.863 -999 -999 -999 -999
2007-11-08 09:40:28 51°15.749 2°46.854 -999 -999 -999 -999
2007-11-08 09:40:33 51°15.745 2°46.845 -999 -999 -999 -999
2007-11-08 09:40:38 51°15.743 2°46.834 -999 -999 -999 -999
2007-11-08 09:40:44 51°15.738 2°46.822 -999 -999 -999 -999
2007-11-08 09:40:48 51°15.736 2°46.814 -999 -999 -999 -999
2007-11-08 09:40:54 51°15.732 2°46.802 -999 -999 -999 -999
2007-11-08 09:40:59 51°15.729 2°46.792 -999 -999 -999 -999
2007-11-08 09:41:03 51°15.726 2°46.784 -999 -999 -999 -999
2007-11-08 09:41:08 51°15.723 2°46.775 -999 -999 -999 -999
2007-11-08 09:41:14 51°15.72 2°46.764 -999 -999 -999 -999
2007-11-08 09:41:18 51°15.717 2°46.756 -999 -999 -999 -999
2007-11-08 09:41:24 51°15.713 2°46.746 -999 -999 -999 -999
2007-11-08 09:41:28 51°15.711 2°46.739 -999 -999 -999 -999
2007-11-08 09:41:34 51°15.707 2°46.728 -999 -999 -999 -999
2007-11-08 09:41:38 51°15.705 2°46.721 -999 -999 -999 -999
2007-11-08 09:41:44 51°15.701 2°46.711 -999 -999 -999 -999
2007-11-08 09:41:48 51°15.699 2°46.704 -999 -999 -999 -999
2007-11-08 09:41:54 51°15.695 2°46.693 -999 -999 -999 -999
2007-11-08 09:41:59 51°15.692 2°46.684 -999 -999 -999 -999
2007-11-08 09:42:04 51°15.689 2°46.675 -999 -999 -999 -999
2007-11-08 09:42:08 51°15.687 2°46.668 -999 -999 -999 -999
2007-11-08 09:42:14 51°15.683 2°46.657 -999 -999 -999 -999
2007-11-08 09:42:19 51°15.68 2°46.648 -999 -999 -999 -999
2007-11-08 09:42:24 51°15.678 2°46.639 -999 -999 -999 -999
2007-11-08 09:42:28 51°15.675 2°46.632 -999 -999 -999 -999
2007-11-08 09:42:33 51°15.672 2°46.623 -999 -999 -999 -999
2007-11-08 09:42:38 51°15.67 2°46.613 -999 -999 -999 -999
2007-11-08 09:42:44 51°15.666 2°46.602 -999 -999 -999 -999
2007-11-08 09:42:48 51°15.664 2°46.595 -999 -999 -999 -999
2007-11-08 09:42:54 51°15.66 2°46.584 -999 -999 -999 -999
2007-11-08 09:42:59 51°15.658 2°46.574 -999 -999 -999 -999
2007-11-08 09:43:04 51°15.654 2°46.565 -999 -999 -999 -999
2007-11-08 09:43:08 51°15.652 2°46.557 -999 -999 -999 -999
2007-11-08 09:43:14 51°15.648 2°46.544 -999 -999 -999 -999
2007-11-08 09:43:18 51°15.646 2°46.535 -999 -999 -999 -999
2007-11-08 09:43:24 51°15.641 2°46.52 -999 -999 -999 -999
2007-11-08 09:43:28 51°15.639 2°46.511 -999 -999 -999 -999
2007-11-08 09:43:34 51°15.635 2°46.497 -999 -999 -999 -999
2007-11-08 09:43:38 51°15.632 2°46.488 -999 -999 -999 -999
2007-11-08 09:43:44 51°15.628 2°46.475 -999 -999 -999 -999
2007-11-08 09:43:48 51°15.625 2°46.466 -999 -999 -999 -999
2007-11-08 09:43:54 51°15.622 2°46.454 -999 -999 -999 -999
2007-11-08 09:43:59 51°15.619 2°46.443 -999 -999 -999 -999
2007-11-08 09:44:04 51°15.616 2°46.434 -999 -999 -999 -999
2007-11-08 09:44:08 51°15.613 2°46.426 -999 -999 -999 -999
2007-11-08 09:44:14 51°15.61 2°46.414 -999 -999 -999 -999
2007-11-08 09:44:19 51°15.607 2°46.404 -999 -999 -999 -999
2007-11-08 09:44:24 51°15.604 2°46.396 -999 -999 -999 -999
2007-11-08 09:44:28 51°15.602 2°46.389 -999 -999 -999 -999
2007-11-08 09:44:34 51°15.599 2°46.377 -999 -999 -999 -999
2007-11-08 09:44:39 51°15.596 2°46.369 -999 -999 -999 -999
2007-11-08 09:44:44 51°15.594 2°46.36 -999 -999 -999 -999
2007-11-08 09:44:48 51°15.592 2°46.353 -999 -999 -999 -999
2007-11-08 09:44:54 51°15.588 2°46.342 -999 -999 -999 -999
2007-11-08 09:44:58 51°15.587 2°46.336 -999 -999 -999 -999
2007-11-08 09:45:04 51°15.584 2°46.325 -999 -999 -999 -999
2007-11-08 09:45:08 51°15.582 2°46.319 -999 -999 -999 -999
2007-11-08 09:45:14 51°15.579 2°46.308 -999 -999 -999 -999
2007-11-08 09:45:18 51°15.577 2°46.302 -999 -999 -999 -999
2007-11-08 09:45:24 51°15.575 2°46.291 -999 -999 -999 -999
2007-11-08 09:45:28 51°15.573 2°46.284 -999 -999 -999 -999
2007-11-08 09:45:33 51°15.571 2°46.275 -999 -999 -999 -999
2007-11-08 09:45:38 51°15.568 2°46.267 -999 -999 -999 -999
2007-11-08 09:45:44 51°15.566 2°46.256 -999 -999 -999 -999
2007-11-08 09:45:48 51°15.563 2°46.249 -999 -999 -999 -999
2007-11-08 09:45:54 51°15.561 2°46.238 -999 -999 -999 -999
2007-11-08 09:45:59 51°15.558 2°46.229 -999 -999 -999 -999
2007-11-08 09:46:04 51°15.555 2°46.221 -999 -999 -999 -999
2007-11-08 09:46:08 51°15.553 2°46.213 -999 -999 -999 -999
2007-11-08 09:46:14 51°15.55 2°46.202 -999 -999 -999 -999
2007-11-08 09:46:19 51°15.548 2°46.193 -999 -999 -999 -999
2007-11-08 09:46:24 51°15.545 2°46.184 -999 -999 -999 -999
2007-11-08 09:46:28 51°15.543 2°46.178 -999 -999 -999 -999
2007-11-08 09:46:34 51°15.54 2°46.167 -999 -999 -999 -999
2007-11-08 09:46:39 51°15.537 2°46.158 -999 -999 -999 -999
2007-11-08 09:46:44 51°15.534 2°46.149 -999 -999 -999 -999
2007-11-08 09:46:48 51°15.532 2°46.143 -999 -999 -999 -999
2007-11-08 09:46:54 51°15.529 2°46.132 -999 -999 -999 -999
2007-11-08 09:46:59 51°15.526 2°46.123 -999 -999 -999 -999
2007-11-08 09:47:04 51°15.523 2°46.113 -999 -999 -999 -999
2007-11-08 09:47:08 51°15.521 2°46.106 -999 -999 -999 -999
2007-11-08 09:47:13 51°15.518 2°46.097 -999 -999 -999 -999
2007-11-08 09:47:18 51°15.516 2°46.088 -999 -999 -999 -999
2007-11-08 09:47:24 51°15.513 2°46.077 -999 -999 -999 -999
2007-11-08 09:47:28 51°15.51 2°46.07 -999 -999 -999 -999
2007-11-08 09:47:33 51°15.508 2°46.061 -999 -999 -999 -999
2007-11-08 09:47:38 51°15.505 2°46.051 -999 -999 -999 -999
2007-11-08 09:47:44 51°15.502 2°46.04 -999 -999 -999 -999
2007-11-08 09:47:48 51°15.5 2°46.033 -999 -999 -999 -999
2007-11-08 09:47:54 51°15.497 2°46.021 -999 -999 -999 -999
2007-11-08 09:47:59 51°15.494 2°46.012 -999 -999 -999 -999
2007-11-08 09:48:04 51°15.491 2°46.002 -999 -999 -999 -999
2007-11-08 09:48:08 51°15.489 2°45.995 -999 -999 -999 -999
2007-11-08 09:48:14 51°15.486 2°45.983 -999 -999 -999 -999
2007-11-08 09:48:19 51°15.483 2°45.975 -999 -999 -999 -999
2007-11-08 09:48:24 51°15.481 2°45.967 -999 -999 -999 -999
2007-11-08 09:48:28 51°15.479 2°45.96 -999 -999 -999 -999
2007-11-08 09:48:34 51°15.475 2°45.95 -999 -999 -999 -999
2007-11-08 09:48:38 51°15.474 2°45.943 -999 -999 -999 -999
2007-11-08 09:48:44 51°15.47 2°45.933 -999 -999 -999 -999
2007-11-08 09:48:48 51°15.468 2°45.927 -999 -999 -999 -999
2007-11-08 09:48:54 51°15.466 2°45.916 -999 -999 -999 -999
2007-11-08 09:48:59 51°15.463 2°45.908 -999 -999 -999 -999
2007-11-08 09:49:04 51°15.461 2°45.899 -999 -999 -999 -999
2007-11-08 09:49:08 51°15.459 2°45.893 -999 -999 -999 -999
2007-11-08 09:49:13 51°15.456 2°45.884 -999 -999 -999 -999
2007-11-08 09:49:18 51°15.454 2°45.875 -999 -999 -999 -999
2007-11-08 09:49:24 51°15.451 2°45.864 -999 -999 -999 -999
2007-11-08 09:49:28 51°15.449 2°45.857 -999 -999 -999 -999
2007-11-08 09:49:33 51°15.446 2°45.849 -999 -999 -999 -999
2007-11-08 09:49:38 51°15.444 2°45.84 -999 -999 -999 -999
2007-11-08 09:49:44 51°15.441 2°45.83 -999 -999 -999 -999
2007-11-08 09:49:48 51°15.439 2°45.822 -999 -999 -999 -999
2007-11-08 09:49:54 51°15.435 2°45.812 -999 -999 -999 -999
2007-11-08 09:49:59 51°15.433 2°45.803 -999 -999 -999 -999
2007-11-08 09:50:03 51°15.431 2°45.796 -999 -999 -999 -999
2007-11-08 09:50:08 51°15.429 2°45.787 -999 -999 -999 -999
2007-11-08 09:50:14 51°15.426 2°45.776 -999 -999 -999 -999
2007-11-08 09:50:18 51°15.423 2°45.769 -999 -999 -999 -999
2007-11-08 09:50:24 51°15.42 2°45.759 -999 -999 -999 -999
2007-11-08 09:50:28 51°15.418 2°45.751 -999 -999 -999 -999
2007-11-08 09:50:34 51°15.414 2°45.741 -999 -999 -999 -999
2007-11-08 09:50:38 51°15.413 2°45.734 -999 -999 -999 -999
2007-11-08 09:50:44 51°15.409 2°45.723 -999 -999 -999 -999
2007-11-08 09:50:48 51°15.407 2°45.716 -999 -999 -999 -999
2007-11-08 09:50:54 51°15.404 2°45.705 -999 -999 -999 -999
2007-11-08 09:50:59 51°15.402 2°45.696 -999 -999 -999 -999
2007-11-08 09:51:04 51°15.399 2°45.687 -999 -999 -999 -999
2007-11-08 09:51:08 51°15.397 2°45.68 -999 -999 -999 -999
2007-11-08 09:51:14 51°15.394 2°45.669 -999 -999 -999 -999
2007-11-08 09:51:19 51°15.392 2°45.66 -999 -999 -999 -999
2007-11-08 09:51:24 51°15.389 2°45.651 -999 -999 -999 -999
2007-11-08 09:51:28 51°15.387 2°45.644 -999 -999 -999 -999
2007-11-08 09:51:33 51°15.384 2°45.635 -999 -999 -999 -999
2007-11-08 09:51:38 51°15.381 2°45.627 -999 -999 -999 -999
2007-11-08 09:51:44 51°15.378 2°45.616 -999 -999 -999 -999
2007-11-08 09:51:48 51°15.376 2°45.609 -999 -999 -999 -999
2007-11-08 09:51:53 51°15.374 2°45.6 -999 -999 -999 -999
2007-11-08 09:51:58 51°15.37 2°45.592 -999 -999 -999 -999
2007-11-08 09:52:04 51°15.368 2°45.581 -999 -999 -999 -999
2007-11-08 09:52:08 51°15.365 2°45.574 -999 -999 -999 -999
2007-11-08 09:52:14 51°15.363 2°45.563 -999 -999 -999 -999
2007-11-08 09:52:19 51°15.36 2°45.554 -999 -999 -999 -999
2007-11-08 09:52:23 51°15.358 2°45.547 -999 -999 -999 -999
2007-11-08 09:52:28 51°15.356 2°45.539 -999 -999 -999 -999
2007-11-08 09:52:34 51°15.353 2°45.529 -999 -999 -999 -999
2007-11-08 09:52:39 51°15.35 2°45.521 -999 -999 -999 -999
2007-11-08 09:52:44 51°15.348 2°45.512 -999 -999 -999 -999
2007-11-08 09:52:48 51°15.346 2°45.505 -999 -999 -999 -999
2007-11-08 09:52:54 51°15.343 2°45.495 -999 -999 -999 -999
2007-11-08 09:52:58 51°15.34 2°45.488 -999 -999 -999 -999
2007-11-08 09:53:04 51°15.338 2°45.477 -999 -999 -999 -999
2007-11-08 09:53:08 51°15.335 2°45.471 -999 -999 -999 -999
2007-11-08 09:53:14 51°15.333 2°45.46 -999 -999 -999 -999
2007-11-08 09:53:19 51°15.331 2°45.451 -999 -999 -999 -999
2007-11-08 09:53:24 51°15.327 2°45.442 -999 -999 -999 -999
2007-11-08 09:53:28 51°15.326 2°45.435 -999 -999 -999 -999
2007-11-08 09:53:34 51°15.322 2°45.424 -999 -999 -999 -999
2007-11-08 09:53:39 51°15.32 2°45.416 -999 -999 -999 -999
2007-11-08 09:53:44 51°15.317 2°45.408 -999 -999 -999 -999
2007-11-08 09:53:48 51°15.315 2°45.401 -999 -999 -999 -999
2007-11-08 09:53:53 51°15.312 2°45.393 -999 -999 -999 -999
2007-11-08 09:53:58 51°15.31 2°45.384 -999 -999 -999 -999
2007-11-08 09:54:04 51°15.306 2°45.374 -999 -999 -999 -999
2007-11-08 09:54:08 51°15.304 2°45.367 -999 -999 -999 -999
2007-11-08 09:54:14 51°15.301 2°45.357 -999 -999 -999 -999
2007-11-08 09:54:19 51°15.298 2°45.348 -999 -999 -999 -999
2007-11-08 09:54:24 51°15.296 2°45.339 -999 -999 -999 -999
2007-11-08 09:54:28 51°15.294 2°45.332 -999 -999 -999 -999
2007-11-08 09:54:33 51°15.292 2°45.324 -999 -999 -999 -999
2007-11-08 09:54:38 51°15.289 2°45.315 -999 -999 -999 -999
2007-11-08 09:54:44 51°15.287 2°45.305 -999 -999 -999 -999
2007-11-08 09:54:48 51°15.285 2°45.298 -999 -999 -999 -999
2007-11-08 09:54:54 51°15.282 2°45.287 -999 -999 -999 -999
2007-11-08 09:54:59 51°15.279 2°45.278 -999 -999 -999 -999
2007-11-08 09:55:04 51°15.277 2°45.269 -999 -999 -999 -999
2007-11-08 09:55:08 51°15.275 2°45.262 -999 -999 -999 -999
2007-11-08 09:55:14 51°15.273 2°45.251 -999 -999 -999 -999
2007-11-08 09:55:19 51°15.269 2°45.243 -999 -999 -999 -999
2007-11-08 09:55:24 51°15.268 2°45.233 -999 -999 -999 -999
2007-11-08 09:55:28 51°15.265 2°45.227 -999 -999 -999 -999
2007-11-08 09:55:33 51°15.263 2°45.218 -999 -999 -999 -999
2007-11-08 09:55:39 51°15.259 2°45.208 -999 -999 -999 -999
2007-11-08 09:55:44 51°15.257 2°45.199 -999 -999 -999 -999
2007-11-08 09:55:48 51°15.255 2°45.192 -999 -999 -999 -999
2007-11-08 09:55:54 51°15.252 2°45.181 -999 -999 -999 -999
2007-11-08 09:55:59 51°15.249 2°45.172 -999 -999 -999 -999
2007-11-08 09:56:04 51°15.247 2°45.164 -999 -999 -999 -999
2007-11-08 09:56:08 51°15.245 2°45.157 -999 -999 -999 -999
2007-11-08 09:56:14 51°15.242 2°45.146 -999 -999 -999 -999
2007-11-08 09:56:19 51°15.239 2°45.137 -999 -999 -999 -999
2007-11-08 09:56:24 51°15.237 2°45.129 -999 -999 -999 -999
2007-11-08 09:56:28 51°15.235 2°45.121 -999 -999 -999 -999
2007-11-08 09:56:33 51°15.232 2°45.112 -999 -999 -999 -999
2007-11-08 09:56:38 51°15.23 2°45.103 -999 -999 -999 -999
2007-11-08 09:56:44 51°15.227 2°45.092 -999 -999 -999 -999
2007-11-08 09:56:48 51°15.225 2°45.084 -999 -999 -999 -999
2007-11-08 09:56:54 51°15.222 2°45.072 -999 -999 -999 -999
2007-11-08 09:56:59 51°15.219 2°45.063 -999 -999 -999 -999
2007-11-08 09:57:04 51°15.216 2°45.052 -999 -999 -999 -999
2007-11-08 09:57:08 51°15.214 2°45.044 -999 -999 -999 -999
2007-11-08 09:57:14 51°15.211 2°45.033 -999 -999 -999 -999
2007-11-08 09:57:19 51°15.208 2°45.023 -999 -999 -999 -999
2007-11-08 09:57:24 51°15.206 2°45.012 -999 -999 -999 -999
2007-11-08 09:57:28 51°15.203 2°45.005 -999 -999 -999 -999
2007-11-08 09:57:34 51°15.2 2°44.993 -999 -999 -999 -999
2007-11-08 09:57:38 51°15.198 2°44.985 -999 -999 -999 -999
2007-11-08 09:57:44 51°15.194 2°44.973 -999 -999 -999 -999
2007-11-08 09:57:48 51°15.192 2°44.965 -999 -999 -999 -999
2007-11-08 09:57:54 51°15.189 2°44.954 -999 -999 -999 -999
2007-11-08 09:57:59 51°15.185 2°44.944 -999 -999 -999 -999
2007-11-08 09:58:04 51°15.182 2°44.934 -999 -999 -999 -999
2007-11-08 09:58:08 51°15.18 2°44.927 -999 -999 -999 -999
2007-11-08 09:58:13 51°15.177 2°44.918 -999 -999 -999 -999
2007-11-08 09:58:19 51°15.174 2°44.906 -999 -999 -999 -999
2007-11-08 09:58:24 51°15.171 2°44.897 -999 -999 -999 -999
2007-11-08 09:58:28 51°15.168 2°44.89 -999 -999 -999 -999
2007-11-08 09:58:34 51°15.165 2°44.879 -999 -999 -999 -999
2007-11-08 09:58:39 51°15.162 2°44.869 -999 -999 -999 -999
2007-11-08 09:58:44 51°15.159 2°44.86 -999 -999 -999 -999
2007-11-08 09:58:48 51°15.157 2°44.853 -999 -999 -999 -999
2007-11-08 09:58:54 51°15.154 2°44.842 -999 -999 -999 -999
2007-11-08 09:58:58 51°15.151 2°44.834 -999 -999 -999 -999
2007-11-08 09:59:04 51°15.148 2°44.823 -999 -999 -999 -999
2007-11-08 09:59:08 51°15.146 2°44.815 -999 -999 -999 -999
2007-11-08 09:59:13 51°15.143 2°44.806 -999 -999 -999 -999
2007-11-08 09:59:18 51°15.14 2°44.798 -999 -999 -999 -999
2007-11-08 09:59:24 51°15.136 2°44.787 -999 -999 -999 -999
2007-11-08 09:59:28 51°15.134 2°44.781 -999 -999 -999 -999
2007-11-08 09:59:34 51°15.131 2°44.77 -999 -999 -999 -999
2007-11-08 09:59:39 51°15.128 2°44.761 -999 -999 -999 -999
2007-11-08 09:59:44 51°15.126 2°44.752 -999 -999 -999 -999
2007-11-08 09:59:48 51°15.124 2°44.744 -999 -999 -999 -999
2007-11-08 09:59:54 51°15.121 2°44.734 -999 -999 -999 -999
2007-11-08 09:59:59 51°15.118 2°44.725 -999 -999 -999 -999
2007-11-08 10:00:04 51°15.116 2°44.716 -999 -999 -999 -999
2007-11-08 10:00:08 51°15.114 2°44.709 -999 -999 -999 -999
2007-11-08 10:00:14 51°15.111 2°44.699 -999 -999 -999 -999
2007-11-08 10:00:19 51°15.108 2°44.689 -999 -999 -999 -999
2007-11-08 10:00:24 51°15.105 2°44.68 -999 -999 -999 -999
2007-11-08 10:00:28 51°15.104 2°44.673 -999 -999 -999 -999
2007-11-08 10:00:33 51°15.101 2°44.664 -999 -999 -999 -999
2007-11-08 10:00:39 51°15.098 2°44.653 -999 -999 -999 -999
2007-11-08 10:00:44 51°15.096 2°44.643 -999 -999 -999 -999
2007-11-08 10:00:48 51°15.093 2°44.636 -999 -999 -999 -999
2007-11-08 10:00:54 51°15.09 2°44.624 -999 -999 -999 -999
2007-11-08 10:00:59 51°15.087 2°44.615 -999 -999 -999 -999
2007-11-08 10:01:04 51°15.085 2°44.605 -999 -999 -999 -999
2007-11-08 10:01:08 51°15.083 2°44.598 -999 -999 -999 -999
2007-11-08 10:01:14 51°15.08 2°44.587 -999 -999 -999 -999
2007-11-08 10:01:18 51°15.078 2°44.579 -999 -999 -999 -999
2007-11-08 10:01:24 51°15.074 2°44.568 -999 -999 -999 -999
2007-11-08 10:01:28 51°15.072 2°44.56 -999 -999 -999 -999
2007-11-08 10:01:34 51°15.069 2°44.548 -999 -999 -999 -999
2007-11-08 10:01:38 51°15.067 2°44.54 -999 -999 -999 -999
2007-11-08 10:01:44 51°15.064 2°44.528 -999 -999 -999 -999
2007-11-08 10:01:48 51°15.062 2°44.521 -999 -999 -999 -999
2007-11-08 10:01:54 51°15.058 2°44.509 -999 -999 -999 -999
2007-11-08 10:01:59 51°15.056 2°44.499 -999 -999 -999 -999
2007-11-08 10:02:04 51°15.053 2°44.49 -999 -999 -999 -999
2007-11-08 10:02:08 51°15.051 2°44.482 -999 -999 -999 -999
2007-11-08 10:02:14 51°15.047 2°44.472 -999 -999 -999 -999
2007-11-08 10:02:19 51°15.044 2°44.463 -999 -999 -999 -999
2007-11-08 10:02:24 51°15.042 2°44.453 -999 -999 -999 -999
2007-11-08 10:02:28 51°15.04 2°44.446 -999 -999 -999 -999
2007-11-08 10:02:34 51°15.037 2°44.434 -999 -999 -999 -999
2007-11-08 10:02:39 51°15.034 2°44.425 -999 -999 -999 -999
2007-11-08 10:02:44 51°15.032 2°44.415 -999 -999 -999 -999
2007-11-08 10:02:48 51°15.029 2°44.408 -999 -999 -999 -999
2007-11-08 10:02:54 51°15.026 2°44.396 -999 -999 -999 -999
2007-11-08 10:02:59 51°15.024 2°44.386 -999 -999 -999 -999
2007-11-08 10:03:04 51°15.022 2°44.378 -999 -999 -999 -999
2007-11-08 10:03:08 51°15.019 2°44.37 -999 -999 -999 -999
2007-11-08 10:03:14 51°15.017 2°44.359 -999 -999 -999 -999
2007-11-08 10:03:18 51°15.014 2°44.352 -999 -999 -999 -999
2007-11-08 10:03:24 51°15.012 2°44.34 -999 -999 -999 -999
2007-11-08 10:03:28 51°15.009 2°44.333 -999 -999 -999 -999
2007-11-08 10:03:34 51°15.006 2°44.322 -999 -999 -999 -999
2007-11-08 10:03:38 51°15.005 2°44.314 -999 -999 -999 -999
2007-11-08 10:03:44 51°15.001 2°44.303 -999 -999 -999 -999
2007-11-08 10:03:48 51°15 2°44.294 -999 -999 -999 -999
2007-11-08 10:03:54 51°14.997 2°44.283 -999 -999 -999 -999
2007-11-08 10:03:59 51°14.994 2°44.274 -999 -999 -999 -999
2007-11-08 10:04:04 51°14.991 2°44.264 -999 -999 -999 -999
2007-11-08 10:04:08 51°14.99 2°44.256 -999 -999 -999 -999
2007-11-08 10:04:14 51°14.986 2°44.245 -999 -999 -999 -999
2007-11-08 10:04:19 51°14.983 2°44.236 -999 -999 -999 -999
2007-11-08 10:04:24 51°14.981 2°44.226 -999 -999 -999 -999
2007-11-08 10:04:28 51°14.978 2°44.219 -999 -999 -999 -999
2007-11-08 10:04:34 51°14.975 2°44.207 -999 -999 -999 -999
2007-11-08 10:04:39 51°14.973 2°44.198 -999 -999 -999 -999
2007-11-08 10:04:44 51°14.97 2°44.189 -999 -999 -999 -999
2007-11-08 10:04:48 51°14.968 2°44.181 -999 -999 -999 -999
2007-11-08 10:04:54 51°14.964 2°44.17 -999 -999 -999 -999
2007-11-08 10:04:59 51°14.962 2°44.16 -999 -999 -999 -999
2007-11-08 10:05:04 51°14.959 2°44.151 -999 -999 -999 -999
2007-11-08 10:05:08 51°14.957 2°44.144 -999 -999 -999 -999
2007-11-08 10:05:14 51°14.954 2°44.132 -999 -999 -999 -999
2007-11-08 10:05:18 51°14.952 2°44.125 -999 -999 -999 -999
2007-11-08 10:05:24 51°14.949 2°44.113 -999 -999 -999 -999
2007-11-08 10:05:28 51°14.947 2°44.105 -999 -999 -999 -999
2007-11-08 10:05:33 51°14.944 2°44.096 -999 -999 -999 -999
2007-11-08 10:05:38 51°14.942 2°44.086 -999 -999 -999 -999
2007-11-08 10:05:44 51°14.939 2°44.075 -999 -999 -999 -999
2007-11-08 10:05:48 51°14.936 2°44.067 -999 -999 -999 -999
2007-11-08 10:05:54 51°14.934 2°44.057 -999 -999 -999 -999
2007-11-08 10:05:59 51°14.931 2°44.047 -999 -999 -999 -999
2007-11-08 10:06:04 51°14.928 2°44.038 -999 -999 -999 -999
2007-11-08 10:06:08 51°14.926 2°44.031 -999 -999 -999 -999
2007-11-08 10:06:14 51°14.923 2°44.019 -999 -999 -999 -999
2007-11-08 10:06:19 51°14.92 2°44.01 -999 -999 -999 -999
2007-11-08 10:06:24 51°14.918 2°44.001 -999 -999 -999 -999
2007-11-08 10:06:28 51°14.916 2°43.994 -999 -999 -999 -999
2007-11-08 10:06:34 51°14.913 2°43.983 -999 -999 -999 -999
2007-11-08 10:06:39 51°14.911 2°43.974 -999 -999 -999 -999
2007-11-08 10:06:44 51°14.908 2°43.965 -999 -999 -999 -999
2007-11-08 10:06:48 51°14.906 2°43.958 -999 -999 -999 -999
2007-11-08 10:06:54 51°14.903 2°43.947 -999 -999 -999 -999
2007-11-08 10:06:59 51°14.901 2°43.938 -999 -999 -999 -999
2007-11-08 10:07:04 51°14.898 2°43.928 -999 -999 -999 -999
2007-11-08 10:07:08 51°14.896 2°43.921 -999 -999 -999 -999
2007-11-08 10:07:14 51°14.893 2°43.909 -999 -999 -999 -999
2007-11-08 10:07:19 51°14.891 2°43.9 -999 -999 -999 -999
2007-11-08 10:07:24 51°14.888 2°43.89 -999 -999 -999 -999
2007-11-08 10:07:28 51°14.887 2°43.883 -999 -999 -999 -999
2007-11-08 10:07:33 51°14.884 2°43.873 -999 -999 -999 -999
2007-11-08 10:07:39 51°14.881 2°43.862 -999 -999 -999 -999